Location: De Greiden
(52.9496°N, 5.9137°E)
Time: 01:59:53
(UTC+00:00)

ISS - Pass Details

Date: 24 January 2021
Orbit: 417 x 422 km, 51.6° (Epoch: 27 February)

Event Time Altitude Azimuth Distance (km) Brightness Sun altitude
Rises 17:38:49 0° 237° (WSW) 2,371 1.5 -13.6°
Reaches altitude 10° 17:40:58 10° 231° (SW) 1,509 0.1 -14.0°
Maximum altitude 17:44:11 42° 159° (SSE) 621 -3.0 -14.4°
Enters shadow 17:45:33 27° 107° (ESE) 852 -2.7 -14.6°
